CAPE
4 7 0 0 0 0 0 0 0 0 0 0 0 0 0 0 0 0 0 0 0 0 0 0 0 0 0 0 0 0 0 0 0 0 0 0 0 0 0 0 0 0 0
2 6 1 1 0 0 0 0 0 0 0 0 0 0 0 0 0 0 0 0 0 0 0 0 0 0 0 0 0 0 0 0 0 0 0 0 0 0 0 0 0 0 0
1 6 2 0 0 0 0 0 0 0 0 0 0 0 0 0 0 0 0 0 0 0 0 0 0 0 0 0 0 0 0 0 0 0 0 0 0 0 0 0 0 0 0
0 3 4 1 1 1 0 0 0 0 0 0 0 0 0 0 0 0 0 0 0 0 0 0 0 0 0 0 0 0 0 0 0 0 0 0 0 0 0 0 0 0 0
0 0 2 1 0 3 0 0 0 0 0 0 0 0 0 0 0 0 0 0 0 0 0 0 0 0 0 0 0 0 0 0 0 0 0 0 0 0 0 0 0 0 0
0 0 1 1 0 2 0 0 0 0 0 0 0 0 0 0 0 0 0 0 0 0 0 0 0 0 0 0 0 0 0 0 0 0 0 0 0 0 0 0 0 0 0
0 0 0 0 0 0 0 0 0 0 0 0 0 0 0 0 0 0 0 0 0 0 0 0 0 0 0 0 0 0 0 0 0 0 0 0 0 0 0 0 0 0 0
0 0 0 0 0 1 0 0 0 0 0 0 0 0 0 0 0 0 0 0 0 0 0 0 0 0 0 0 0 0 0 0 0 0 0 0 0 0 0 0 0 0 0
0 0 0 0 0 0 1 0 0 1 0 0 0 0 0 0 0 0 0 0 0 0 0 0 0 0 0 0 0 0 0 0 0 0 0 0 0 0 0 0 0 0 0
0 0 0 0 0 0 1 0 1 1 0 0 0 0 0 0 0 0 0 0 0 0 0 0 0 0 0 0 0 0 0 0 0 0 0 0 0 0 0 0 0 0 0
0 0 0 0 0 0 0 0 0 0 0 0 0 0 0 0 0 0 0 0 0 0 0 0 0 0 0 0 0 0 0 0 0 0 0 0 0 0 0 0 0 0 0
0 0 0 0 0 1 0 0 0 0 0 0 0 0 0 0 0 0 0 0 0 0 0 0 0 0 0 0 0 0 0 0 0 0 0 0 0 0 0 0 0 0 0
0 0 0 0 0 0 0 0 0 0 0 0 0 0 0 0 0 0 0 0 0 0 0 0 0 0 0 0 0 0 0 0 0 0 0 0 0 0 0 0 0 0 0
0 0 0 0 1 0 0 1 0 0 0 0 0 0 0 0 0 0 0 0 0 0 0 0 0 0 0 0 0 0 0 0 0 0 0 0 0 0 0 0 0 0 0
0 0 0 0 0 0 0 0 0 0 0 0 0 0 0 0 0 0 0 0 0 0 0 0 0 0 0 0 0 0 0 0 0 0 0 0 0 0 0 0 0 0 0
0 0 0 0 0 0 0 0 4 9 4 3 4 0 0 0 0 0 0 0 1 4 0 0 0 0 0 0 0 0 0 0 0 0 0 0 0 0 0 0 0 0 0
0 0 0 0 0 0 0 0 0 0 4 3 4 3 0 0 0 0 0 1 4 1 0 0 0 0 0 0 0 0 0 0 0 0 0 0 0 0 0 0 0 0 0
0 3 0 0 0 0 1 0 0 0 0 0 2 2 1 3 0 0 1 4 0 0 0 0 0 0 0 0 0 0 0 0 0 0 0 0 0 0 0 0 0 0 0
0 0 0 0 0 1 0 0 0 0 0 0 0 1 1 6 3 3 4 0 0 0 0 0 0 0 0 0 0 0 0 0 0 0 0 0 0 0 0 0 0 0 0
0 6 5 0 0 0 0 0 0 0 0 0 0 0 0 0 0 0 0 0 0 0 0 0 0 0 0 0 0 0 0 0 0 0 0 0 0 0 0 0 0 0 0
0 0 6 0 0 0 0 0 0 0 0 0 0 1 2 0 0 0 0 0 0 0 0 0 0 0 0 0 0 0 0 0 0 0 0 0 0 0 0 0 0 0 0
0 0 0 0 0 0 0 0 0 0 0 0 0 0 4 0 0 0 0 0 0 0 0 0 0 0 0 0 0 0 0 0 0 0 0 0 0 0 0 0 0 0 0
0 0 0 0 0 0 0 0 0 0 0 0 0 0 0 0 0 0 0 0 0 0 0 0 0 0 0 0 0 0 0 0 0 0 0 0 0 0 0 0 0 0 0
0 0 0 0 0 0 0 0 0 0 0 0 0 0 0 0 0 0 0 0 0 0 0 0 0 0 0 0 0 0 0 0 0 0 0 0 0 0 0 0 0 0 0
0 0 0 0 0 0 0 0 0 0 0 0 0 0 0 0 0 0 0 0 0 0 0 0 0 0 0 0 0 0 0 0 0 0 0 0 0 0 0 0 0 0 0
0 0 0 0 0 0 0 0 0 0 0 0 0 0 0 0 0 0 0 0 0 0 0 0 0 0 0 0 0 0 0 0 0 0 0 0 0 0 0 0 0 0 0
CIN
-0 -0 -0 -0 -0 -0 -0 -0 -0 -0 -0 -0 -0 -0 -0 -0 -0 -0 -0 -0 -0 -0 -0 -0 -0 -0 -0 -0 -0 -0 -0 -0 -0 -0 -0 -0 -0 -0 -0 -0 -0 -0 -0
-0 -0 -0 -0 -0 -0 -0 -0 -0 -0 -0 -0 -0 -0 -0 -0 -0 -0 -0 -0 -0 -0 -0 -0 -0 -0 -0 -0 -0 -0 -0 -0 -0 -0 -0 -0 -0 -0 -0 -0 -0 -0 -0
-0 -0 -0 -0 -0 -0 -0 -0 -0 -0 -0 -0 -0 -0 -0 -0 -0 -0 -0 -0 -0 -0 -0 -0 -0 -0 -0 -0 -0 -0 -0 -0 -0 -0 -0 -0 -0 -0 -0 -0 -0 -0 -0
-0 -0 -0 -0 -0 -0 -0 -0 -0 -0 -0 -0 -0 -0 -0 -0 -0 -0 -0 -0 -0 -0 -0 -0 -0 -0 -0 -0 -0 -0 -0 -0 -0 -0 -0 -0 -0 -0 -0 -0 -0 -0 -0
-0 -0 -0 -0 -0 -0 -0 -0 -0 -0 -0 -0 -0 -0 -0 -0 -0 -0 -0 -0 -0 -0 -0 -0 -0 -0 -0 -0 -0 -0 -0 -0 -0 -0 -0 -0 -0 -0 -0 -0 -0 -0 -0
-0 -0 -0 -0 -0 -0 -0 -0 -0 -0 -0 -0 -0 -0 -0 -0 -0 -0 -0 -0 -0 -0 -0 -0 -0 -0 -0 -0 -0 -0 -0 -0 -0 -0 -0 -0 -0 -0 -0 -0 -0 -0 -0
-0 -0 -0 -0 -0 -0 -0 -0 -0 -0 -0 -0 -0 -0 -0 -0 -0 -0 -0 -0 -0 -0 -0 -0 -0 -0 -0 -0 -0 -0 -0 -0 -0 -0 -0 -0 -0 -0 -0 -0 -0 -0 -0
-0 -0 -0 -0 -0 -0 -0 -0 -0 -0 -0 -0 -0 -0 -0 -0 -0 -0 -0 -0 -0 -0 -0 -0 -0 -0 -0 -0 -0 -0 -0 -0 -0 -0 -0 -0 -0 -0 -0 -0 -0 -0 -0
-0 -0 -0 -0 -0 -0 -0 -0 -0 -0 -0 -0 -0 -0 -0 -0 -0 -0 -0 -0 -0 -0 -0 -0 -0 -0 -0 -0 -0 -0 -0 -0 -0 -0 -0 -0 -0 -0 -0 -0 -0 -0 -0
-0 -0 -0 -0 -0 -0 -0 -0 -0 -0 -0 -0 -0 -0 -0 -0 -0 -0 -0 -0 -0 -0 -0 -0 -0 -0 -0 -0 -0 -0 -0 -0 -0 -0 -0 -0 -0 -0 -0 -0 -0 -0 -0
-0 -0 -0 -0 -0 -0 -0 -0 -0 -0 -0 -0 -0 -0 -0 -0 -0 -0 -0 -0 -0 -0 -0 -0 -0 -0 -0 -0 -0 -0 -0 -0 -0 -0 -0 -0 -0 -0 -0 -0 -0 -0 -0
-0 -0 -0 -0 -0 -0 -0 -0 -0 -0 -0 -0 -0 -0 -0 -0 -0 -0 -0 -0 -0 -0 -0 -0 -0 -0 -0 -0 -0 -0 -0 -0 -0 -0 -0 -0 -0 -0 -0 -0 -0 -0 -0
-0 -0 -0 -0 -0 -0 -0 -0 -0 -0 -0 -0 -0 -0 -0 -0 -0 -0 -0 -0 -0 -0 -0 -0 -0 -0 -0 -0 -0 -0 -0 -0 -0 -0 -0 -0 -0 -0 -0 -0 -0 -0 -0
-0 -0 -0 -0 -0 -0 -0 -0 -0 -0 -0 -0 -0 -0 -0 -0 -0 -0 -0 -0 -0 -0 -0 -0 -0 -0 -0 -0 -0 -0 -0 -0 -0 -0 -0 -0 -0 -0 -0 -0 -0 -0 -0
-0 -0 -0 -0 -0 -0 -0 -0 -0 -0 -0 -0 -0 -0 -0 -0 -0 -0 -0 -0 -0 -0 -0 -0 -0 -0 -0 -0 -0 -0 -0 -0 -0 -0 -0 -0 -0 -0 -0 -0 -0 -0 -0
-0 -0 -0 -0 -0 -0 -0 -0 -0 -0 -0 -0 -0 -0 -0 -0 -0 -0 -0 -0 -0 -0 -0 -0 -0 -0 -0 -0 -0 -0 -0 -0 -0 -0 -0 -0 -0 -0 -0 -0 -0 -0 -0
-0 -0 -0 -0 -0 -0 -0 -0 -0 -0 -0 -0 -0 -0 -0 -0 -0 -0 -0 -0 -0 -0 -0 -0 -0 -0 -0 -0 -0 -0 -0 -0 -0 -0 -0 -0 -0 -0 -0 -0 -0 -0 -0
-0 -0 -0 -0 -0 -0 -0 -0 -0 -0 -0 -0 -0 -0 -0 -0 -0 -0 -0 -0 -0 -0 -0 -0 -0 -0 -0 -0 -0 -0 -0 -0 -0 -0 -0 -0 -0 -0 -0 -0 -0 -0 -0
-0 -0 -0 -0 -0 -0 -0 -0 -0 -0 -0 -0 -0 -0 -0 -0 -0 -0 -0 -0 -0 -0 -0 -0 -0 -0 -0 -0 -0 -0 -0 -0 -0 -0 -0 -0 -0 -0 -0 -0 -0 -0 -0
-0 -0 -0 -0 -0 -0 -0 -0 -0 -0 -0 -0 -0 -0 -0 -0 -0 -0 -0 -0 -0 -0 -0 -0 -0 -0 -0 -0 -0 -0 -0 -0 -0 -0 -0 -0 -0 -0 -0 -0 -0 -0 -0
-0 -0 -0 -0 -0 -0 -0 -0 -0 -0 -0 -0 -0 -0 -0 -0 -0 -0 -0 -0 -0 -0 -0 -0 -0 -0 -0 -0 -0 -0 -0 -0 -0 -0 -0 -0 -0 -0 -0 -0 -0 -0 -0
-0 -0 -0 -0 -0 -0 -0 -0 -0 -0 -0 -0 -0 -0 -0 -0 -0 -0 -0 -0 -0 -0 -0 -0 -0 -0 -0 -0 -0 -0 -0 -0 -0 -0 -0 -0 -0 -0 -0 -0 -0 -0 -0
-0 -0 -0 -0 -0 -0 -0 -0 -0 -0 -0 -0 -0 -0 -0 -0 -0 -0 -0 -0 -0 -0 -0 -0 -0 -0 -0 -0 -0 -0 -0 -0 -0 -0 -0 -0 -0 -0 -0 -0 -0 -0 -0
-0 -0 -0 -0 -0 -0 -0 -0 -0 -0 -0 -0 -0 -0 -0 -0 -0 -0 -0 -0 -0 -0 -0 -0 -0 -0 -0 -0 -0 -0 -0 -0 -0 -0 -0 -0 -0 -0 -0 -0 -0 -0 -0
-0 -0 -0 -0 -0 -0 -0 -0 -0 -0 -0 -0 -0 -0 -0 -0 -0 -0 -0 -0 -0 -0 -0 -0 -0 -0 -0 -0 -0 -0 -0 -0 -0 -0 -0 -0 -0 -0 -0 -0 -0 -0 -0
-0 -0 -0 -0 -0 -0 -0 -0 -0 -0 -0 -0 -0 -0 -0 -0 -0 -0 -0 -0 -0 -0 -0 -0 -0 -0 -0 -0 -0 -0 -0 -0 -0 -0 -0 -0 -0 -0 -0 -0 -0 -0 -0
Wind_Speed
19 15 13 9 18 17 16 17 16 16 18 20 20 19 19 18 17 16 14 15 15 16 14 15 13 8 5 4 4 3 3 3 4 1 1 2 3 4 4 4 5 4 5
17 15 11 16 16 17 17 18 18 17 17 19 19 19 19 19 19 19 17 15 17 15 15 14 13 9 9 6 4 5 4 3 4 4 2 1 3 3 3 4 3 4 5
17 18 12 12 7 16 16 16 17 17 17 17 18 19 20 19 18 17 16 16 16 14 14 15 13 13 11 7 5 6 4 3 3 4 3 1 1 2 1 1 4 3 4
14 17 12 11 14 9 16 16 16 17 18 18 18 19 19 19 20 19 18 16 15 14 14 14 14 15 14 12 9 8 6 5 4 4 2 2 2 1 1 3 3 3 3
14 14 14 12 12 16 15 16 16 16 16 17 18 18 18 18 15 19 18 18 17 15 12 12 11 13 15 16 10 8 8 6 4 4 3 2 3 3 4 3 3 2 3
14 15 15 12 13 14 4 15 16 16 15 16 17 17 18 13 23 25 21 17 17 16 14 12 10 13 12 16 14 16 14 11 6 5 3 5 4 4 3 4 3 1 2
13 13 13 13 12 13 11 7 14 16 15 16 16 17 18 17 25 26 25 15 15 14 13 12 9 9 11 10 13 14 14 15 9 10 7 7 5 7 6 4 4 3 3
12 13 13 12 12 13 11 9 12 13 15 15 16 17 16 15 27 31 29 16 15 15 15 14 14 11 11 11 10 8 7 9 7 6 6 6 5 6 6 5 6 3 3
13 13 13 12 12 11 10 10 7 10 12 14 15 17 17 16 29 29 25 14 15 16 15 14 13 11 14 17 12 10 8 6 8 9 7 8 8 10 9 5 3 3 1
14 14 13 12 11 10 10 9 6 7 9 11 14 16 20 17 29 32 27 12 14 11 11 11 18 15 20 21 12 12 10 7 8 6 5 7 7 8 9 4 4 3 2
14 13 12 11 10 9 9 6 6 6 4 10 12 13 16 17 21 31 31 15 13 12 11 10 9 19 21 22 15 9 8 10 11 8 6 4 4 5 4 5 4 3 3
14 13 13 12 10 8 10 8 6 5 5 8 10 8 9 12 23 28 29 21 19 13 13 10 11 21 19 16 13 12 17 13 7 7 6 4 4 3 4 5 5 5 5
14 14 13 13 11 9 9 8 6 6 3 5 8 9 8 8 11 29 30 25 20 13 10 14 20 22 19 15 17 18 18 8 8 7 6 4 3 4 6 5 4 5 5
14 13 12 11 12 9 7 6 4 4 5 3 5 8 8 8 9 11 12 12 15 8 14 14 17 17 15 12 12 13 6 7 8 7 6 5 5 4 3 2 2 1 2
12 11 11 8 10 9 8 6 5 3 3 4 3 3 9 9 10 18 18 13 12 13 14 10 10 10 9 9 8 7 7 7 6 5 7 6 6 5 3 2 2 2 3
11 10 9 8 8 7 7 7 11 12 7 8 10 4 1 5 16 24 24 23 24 27 11 11 10 10 11 11 10 9 7 10 7 8 7 7 7 6 6 2 3 3 3
11 11 8 9 7 7 7 6 7 9 10 8 10 4 8 8 16 20 23 24 29 24 8 10 11 11 10 10 10 10 7 7 9 7 8 7 7 6 9 4 3 2 2
10 18 9 8 7 7 7 6 5 5 6 4 4 6 3 10 17 22 24 23 15 8 9 11 10 10 10 11 10 10 9 8 7 7 7 7 7 7 7 5 3 4 2
8 9 9 7 7 8 6 5 5 6 5 5 3 4 7 3 14 26 29 12 13 11 10 9 9 10 10 10 10 10 10 9 9 8 7 7 7 8 6 5 5 8 6
8 17 13 6 7 6 6 6 5 5 5 5 4 3 2 4 4 12 7 8 8 9 10 11 10 10 10 10 10 10 10 10 9 8 8 8 7 7 7 6 4 4 2
6 7 15 7 6 6 6 6 4 4 5 5 4 4 4 2 3 4 6 7 8 9 10 11 10 10 10 10 10 10 10 9 9 9 9 8 8 7 7 6 5 4 4
5 5 6 6 6 6 5 5 5 4 3 4 3 3 5 2 4 4 3 4 5 6 8 10 10 9 10 11 11 11 11 10 9 9 9 8 7 8 6 5 4 3 3
5 6 6 6 6 9 6 5 5 5 3 3 3 2 2 1 3 5 6 6 6 7 7 9 10 9 9 9 9 11 12 11 10 11 11 10 9 8 7 5 5 3 2
5 6 7 6 6 4 5 4 4 7 5 4 4 3 2 3 4 5 5 6 7 7 7 8 9 13 11 10 9 9 10 10 10 11 14 11 10 12 6 4 4 4 3
6 6 6 6 5 5 5 4 4 3 3 3 3 3 3 4 5 6 5 6 7 8 7 8 8 14 15 16 13 13 18 24 14 14 9 11 11 10 7 5 4 3 3
7 7 6 5 5 4 3 3 3 3 3 3 2 2 3 4 5 6 6 7 8 8 9 7 10 15 16 14 15 21 26 26 20 22 11 10 9 7 6 6 6 3 3
Wind_Direction
316 322 345 226 170 168 173 173 174 171 171 175 176 176 178 180 185 181 182 178 187 175 177 181 182 162 170 167 152 145 146 120 117 255 192 167 159 178 177 174 208 224 247
318 319 337 337 174 171 176 174 174 175 174 173 176 177 180 182 183 184 179 178 180 181 172 179 182 170 168 167 165 165 162 157 128 147 170 177 189 203 173 177 224 217 242
340 320 352 345 236 173 173 174 174 173 173 176 177 179 181 183 182 187 186 183 181 185 175 180 177 171 171 173 168 165 163 147 116 123 147 164 161 152 164 157 228 241 249
336 329 346 350 336 235 171 173 174 175 172 176 180 180 183 185 187 185 184 183 182 184 176 187 182 186 177 181 179 176 156 150 135 117 131 138 143 206 152 177 267 234 263
344 342 338 350 339 314 182 171 173 175 177 175 177 181 183 186 187 186 185 182 178 173 173 187 184 191 186 184 172 171 156 147 142 134 147 134 154 192 202 164 219 302 278
352 339 336 338 6 305 260 169 172 174 175 176 180 179 181 184 187 186 180 176 173 168 171 183 183 177 182 178 177 172 173 164 171 149 135 193 192 204 153 164 153 129 299
345 333 334 342 336 330 332 206 169 172 168 175 175 179 182 183 180 182 181 177 169 171 176 179 174 185 177 183 179 170 181 184 169 166 180 182 199 184 145 163 189 181 193
336 327 335 343 335 333 344 348 174 170 173 174 176 179 181 186 182 184 182 178 172 177 176 179 183 178 185 170 172 168 179 191 182 178 183 177 185 160 171 174 177 151 91
341 329 336 334 330 333 342 342 341 177 177 180 180 178 183 185 182 182 178 176 172 175 176 179 175 174 181 173 169 175 181 189 164 162 167 165 169 160 156 125 141 115 188
336 327 329 322 332 340 328 320 353 333 191 177 182 184 187 184 182 184 181 175 170 168 167 170 173 171 175 175 174 181 187 175 150 118 108 93 103 133 131 67 137 131 132
329 329 327 324 325 328 324 323 342 325 260 175 179 180 180 180 181 183 181 177 172 169 172 172 174 171 175 180 174 174 190 138 147 133 115 108 94 86 76 72 82 117 136
331 330 328 331 337 339 327 328 344 338 281 176 167 166 173 174 177 184 186 178 173 170 175 175 170 170 169 176 168 165 144 142 141 127 137 137 128 112 96 91 87 86 69
329 332 332 336 331 339 331 332 352 356 327 201 174 169 164 169 173 185 193 196 182 181 174 173 161 163 169 173 169 154 151 145 138 152 164 134 123 135 119 94 88 85 88
330 331 328 338 341 338 331 330 345 0 360 304 190 174 160 164 167 171 176 174 166 148 145 151 158 154 158 155 144 151 138 145 153 148 136 114 118 117 105 102 94 85 84
327 325 329 333 331 333 332 325 346 311 340 329 287 195 164 170 178 169 163 163 158 153 133 132 138 143 147 149 146 138 139 144 137 126 136 133 132 129 104 97 99 87 94
328 329 323 337 323 332 324 328 347 335 344 0 323 224 195 169 174 172 168 163 151 145 141 151 149 156 161 159 156 147 146 144 142 134 134 144 145 150 134 134 99 126 127
325 323 324 326 318 331 322 339 342 329 348 25 4 309 185 170 168 170 159 153 152 145 148 155 157 161 161 158 154 157 150 145 136 137 141 146 145 147 140 132 133 105 81
324 325 317 307 326 326 329 331 336 328 345 344 359 7 336 186 168 156 149 142 151 144 156 157 156 154 156 154 154 142 139 139 137 141 141 142 143 138 136 140 129 122 122
321 316 319 323 326 336 323 334 345 323 343 335 339 32 5 195 168 153 156 161 162 159 155 149 147 149 149 148 142 142 146 145 142 139 138 138 139 134 126 142 146 142 125
316 326 336 336 321 323 330 331 335 325 340 333 355 359 3 31 147 159 158 156 162 155 153 146 145 143 142 142 141 140 139 141 140 137 139 136 135 139 143 146 133 124 131
308 323 334 326 323 330 320 317 308 324 334 338 348 350 10 82 84 161 163 153 161 154 149 141 144 142 139 140 143 142 137 139 141 135 135 135 140 135 140 142 133 127 131
332 323 319 321 318 314 322 327 326 320 331 331 321 334 4 71 121 114 103 125 132 138 135 135 137 141 142 146 147 137 137 138 139 137 132 134 136 137 141 130 125 115 110
328 323 324 321 316 329 340 328 335 336 340 330 317 15 25 43 88 121 123 123 116 114 121 129 124 126 127 132 139 142 142 147 146 141 139 140 141 141 142 140 135 115 126
326 321 319 314 317 347 329 331 343 5 6 14 7 7 26 53 65 79 104 114 111 110 119 121 124 129 122 122 126 128 129 132 138 142 139 139 143 143 133 122 122 121 141
327 324 319 316 319 323 329 347 352 2 13 21 16 359 25 61 77 77 80 94 101 102 102 114 118 125 126 126 128 128 137 136 134 135 131 131 131 131 131 122 130 150 146
324 323 316 318 314 321 339 340 356 9 26 29 23 17 44 69 77 91 94 95 99 99 104 105 113 116 118 118 125 137 138 138 137 132 128 127 128 129 132 132 142 142 135